Weather History for PACD - January, 2013

Change the Weather History Date:

Monday, January 28, 2013

  Actual Average Record
Temperature  
Mean Temperature 29 °F 28 °F  
Max Temperature 40 °F 33 °F 50 °F (1973)
Min Temperature 17 °F 23 °F -7 °F (1989)
Degree Days  
Heating Degree Days 36 37  
Month to date heating degree days 901 1028  
Since 1 July heating degree days 5330 5105  
Cooling Degree Days 0    
Month to date cooling degree days 0  
Year to date cooling degree days 0  
Moisture  
Dew Point 27 °F    
Average Humidity 0    
Maximum Humidity 0    
Minimum Humidity 0    
Precipitation  
Precipitation 0.46 in 0.10 in 1.31 in (2002)
Month to date precipitation 3.36 2.86  
Year to date precipitation 3.36 2.86  
Snow  
Snow 9.90 in 0.40 in 9.90 in (2013)
Month to date snowfall 18.3 12.8  
Since 1 July snowfall 40.7 38.0  
Snow Depth 8.00 in    
Sea Level Pressure  
Sea Level Pressure 29.11 in    
Wind  
Wind Speed 21 mph (East)    
Max Wind Speed 41 mph    
Max Gust Speed 61 mph    
Visibility 5 miles    
Events Rain , Snow    
T = Trace of Precipitation, MM = Missing Value Source: NWS Daily Summary

Daily Weather History Graph

Daily Weather History Graph

Search for Another Location

Airport or City:

Trip Planner

Search our weather history database for the weather conditions in past years. The results will help you decide how hot, cold, wet, or windy it might be!

Date:

Astronomy

Jan. 28, 2013 Rise Set
Actual Time 9:48 AM AKST 6:20 PM AKST
Civil Twilight 9:07 AM AKST 7:00 PM AKST
Nautical Twilight 8:23 AM AKST 7:45 PM AKST
Astronomical Twilight 7:40 AM AKST 8:28 PM AKST
Moon 8:59 PM AKST (1/28) 9:53 AM AKST (1/28)
Length of Visible Light 9h 52m
Length of Day
8h 31m
Full, 97% of the Moon is Illuminated
Jan 28
Full
Feb 3
Last Quarter
Feb 9
New
Feb 17
First Quarter
Feb 25
Full

Hourly Weather History & Observations

Time (AKST) Temp. Windchill Dew Point Humidity Pressure Visibility Wind Dir Wind Speed Gust Speed Precip Events Conditions
12:53 AM 19.0 °F 1.6 °F 15.1 °F 85% 29.55 in 0.8 mi NNE 24.2 mph 31.1 mph 0.06 in Snow Light Snow
1:07 AM 19.4 °F 1.4 °F 15.8 °F 86% 29.54 in 1.0 mi NNE 26.5 mph 32.2 mph 0.01 in Snow Light Snow
1:53 AM 19.0 °F 1.0 °F 15.1 °F 85% 29.50 in 1.2 mi NNE 26.5 mph 32.2 mph 0.04 in Snow Light Snow
2:35 AM 17.6 °F -0.6 °F 14.0 °F 86% 29.44 in 1.5 mi NNE 25.3 mph - 0.02 in Snow Light Snow
2:53 AM 17.6 °F -0.6 °F 14.0 °F 86% 29.42 in 1.8 mi NNE 25.3 mph 32.2 mph N/A Snow Light Snow
3:01 AM 19.4 °F 2.8 °F 15.8 °F 86% 29.42 in 2.0 mi NNE 21.9 mph 32.2 mph 0.01 in Snow Light Snow
3:34 AM 21.2 °F 6.8 °F 17.6 °F 86% 29.38 in 3.0 mi NNE 17.3 mph 24.2 mph 0.03 in Snow Light Snow
3:50 AM 19.4 °F 5.5 °F 17.6 °F 93% 29.38 in 2.5 mi North 15.0 mph 25.3 mph 0.04 in Snow Light Snow
3:53 AM 21.0 °F 7.6 °F 17.1 °F 85% 29.38 in 2.5 mi NNE 15.0 mph 23.0 mph 0.05 in Snow Light Snow
4:00 AM 21.2 °F 8.3 °F 17.6 °F 86% 29.37 in 2.5 mi NNE 13.8 mph 24.2 mph 0.00 in Snow Light Snow
4:29 AM 19.4 °F 4.1 °F 17.6 °F 93% 29.35 in 3.0 mi North 18.4 mph 26.5 mph 0.03 in Snow Light Snow
4:53 AM 19.9 °F 6.2 °F 17.1 °F 89% 29.33 in 3.0 mi North 15.0 mph 21.9 mph 0.06 in Snow Light Snow
5:12 AM 19.4 °F 3.6 °F 15.8 °F 86% 29.30 in 2.0 mi NNE 19.6 mph 25.3 mph 0.03 in Snow Light Snow
5:23 AM 21.2 °F 6.0 °F 17.6 °F 86% 29.27 in 4.0 mi NNE 19.6 mph - 0.04 in Snow Light Snow
5:33 AM 21.2 °F 6.0 °F 17.6 °F 86% 29.25 in 3.0 mi NNE 19.6 mph 26.5 mph 0.05 in Snow Light Snow
5:53 AM 21.9 °F 8.2 °F 19.0 °F 89% 29.24 in 3.0 mi NNE 16.1 mph 24.2 mph 0.07 in Snow Light Snow
6:17 AM 23.0 °F 8.3 °F 19.4 °F 86% 29.21 in 4.0 mi NNE 19.6 mph - 0.03 in   Overcast
6:37 AM 23.0 °F 7.2 °F 19.4 °F 86% 29.20 in 2.5 mi NNE 23.0 mph 27.6 mph 0.05 in Snow Light Snow
6:48 AM 28.4 °F 15.1 °F 24.8 °F 86% 29.16 in 3.0 mi NE 20.7 mph 34.5 mph 0.05 in Snow Light Snow
6:53 AM 33.1 °F 18.9 °F 28.9 °F 85% 29.16 in 3.0 mi East 31.1 mph 42.6 mph 0.06 in Snow Light Snow
6:56 AM 33.8 °F 19.9 °F 30.2 °F 87% 29.15 in 2.0 mi East 31.1 mph 44.9 mph 0.00 in Snow Light Snow
7:18 AM 33.8 °F 18.8 °F 30.2 °F 87% 29.13 in 1.2 mi ENE 36.8 mph 49.5 mph 0.00 in Snow Light Snow
7:53 AM 34.0 °F 18.5 °F 30.0 °F 85% 29.13 in 1.2 mi ENE 40.3 mph 61.0 mph 0.02 in Snow Light Snow
8:23 AM 33.8 °F 18.8 °F 30.2 °F 87% 29.07 in 2.0 mi East 36.8 mph 50.6 mph 0.04 in Snow Light Snow
8:42 AM 35.6 °F 21.9 °F 30.2 °F 81% 29.07 in 4.0 mi East 33.4 mph 54.1 mph 0.04 in Snow Light Snow
8:53 AM 35.1 °F 22.5 °F 30.9 °F 85% 29.08 in 6.0 mi East 26.5 mph 42.6 mph 0.04 in Snow Light Snow
9:53 AM 37.9 °F 28.2 °F 30.9 °F 76% 29.04 in 10.0 mi ESE 18.4 mph 26.5 mph 0.02 in Rain Light Rain
10:11 AM 37.4 °F 28.5 °F 30.2 °F 75% 29.02 in 6.0 mi SE 15.0 mph 34.5 mph 0.01 in Rain Rain
10:53 AM 37.0 °F 27.4 °F 30.9 °F 79% 29.01 in 10.0 mi SE 17.3 mph 20.7 mph 0.02 in   Overcast
11:13 AM 37.4 °F 27.2 °F 30.2 °F 75% 29.00 in 10.0 mi SE 19.6 mph 26.5 mph N/A   Overcast
11:36 AM 37.4 °F 25.9 °F 30.2 °F 75% 28.99 in 10.0 mi SSE 25.3 mph 34.5 mph 0.00 in Rain Light Rain
11:53 AM 37.9 °F 29.6 °F 30.9 °F 76% 29.01 in 10.0 mi ESE 13.8 mph 27.6 mph 0.00 in Rain Light Rain
12:53 PM 37.9 °F 25.9 °F 30.9 °F 76% 28.96 in 10.0 mi East 28.8 mph 43.7 mph 0.00 in Rain Light Rain
1:53 PM 37.9 °F 27.3 °F 30.9 °F 76% 28.95 in 10.0 mi ESE 21.9 mph 29.9 mph 0.00 in   Overcast
2:53 PM 39.0 °F 29.3 °F 30.9 °F 73% 28.92 in 10.0 mi ESE 19.6 mph 32.2 mph N/A   Overcast
3:53 PM 37.9 °F 30.0 °F 32.0 °F 79% 28.90 in 10.0 mi SE 12.7 mph - 0.00 in Rain Light Rain
4:53 PM 37.9 °F 29.6 °F 33.1 °F 83% 28.88 in 10.0 mi SE 13.8 mph - 0.03 in Rain Light Rain
5:44 PM 37.4 °F 29.8 °F 33.8 °F 87% 28.86 in 10.0 mi ESE 11.5 mph - 0.01 in   Overcast
5:53 PM 39.0 °F 31.0 °F 34.0 °F 82% 28.86 in 10.0 mi SE 13.8 mph - 0.01 in   Overcast
6:53 PM 39.0 °F 31.0 °F 34.0 °F 82% 28.84 in 10.0 mi ESE 13.8 mph 23.0 mph 0.00 in   Overcast
7:53 PM 37.9 °F 28.2 °F 34.0 °F 86% 28.84 in 9.0 mi ESE 18.4 mph - 0.02 in Rain Rain
8:53 PM 37.9 °F 28.5 °F 35.1 °F 89% 28.83 in 9.0 mi ESE 17.3 mph - 0.10 in Rain Light Rain
9:44 PM 39.2 °F 30.5 °F 35.6 °F 87% 28.83 in 4.0 mi SE 16.1 mph - 0.02 in Rain Light Rain
9:53 PM 39.0 °F 29.0 °F 36.0 °F 89% 28.84 in 4.0 mi SE 20.7 mph - 0.03 in Rain Light Rain
10:47 PM 37.4 °F 26.1 °F 35.6 °F 93% 28.84 in 4.0 mi SE 24.2 mph 33.4 mph 0.02 in Rain Light Rain
10:53 PM 37.9 °F 27.3 °F 37.0 °F 97% 28.85 in 5.0 mi SE 21.9 mph - 0.02 in Rain Light Rain
11:29 PM 37.4 °F 26.4 °F 35.6 °F 93% 28.85 in 4.0 mi SE 23.0 mph - 0.00 in Rain Light Rain
11:37 PM 37.4 °F 26.4 °F 35.6 °F 93% 28.86 in 4.0 mi SE 23.0 mph - 0.01 in Rain Light Rain
11:53 PM 37.9 °F 27.1 °F 36.0 °F 93% 28.87 in 4.0 mi SE 23.0 mph - 0.01 in Rain Light Rain